• In Belarus
  • List of Countries
  • For 7 days
  • Water Temperature
  • Satellite Maps
  • Weather Map
  • Weather Widgets
  • user-avatar
    Login

    Hourly Weather Chhindwara

    Today, 19 January, Saturday

    Time Temperature Precipitation Wind Pressure Humidity
    00:00 +16°C° 0 mm 2 mps 702 mmHg 37%
    01:00 +16°C° 0 mm 1 mps 702 mmHg 38%
    02:00 +15°C° 0 mm 1 mps 702 mmHg 39%
    03:00 +15°C° 0 mm 1 mps 702 mmHg 39%
    04:00 +15°C° 0 mm 1 mps 702 mmHg 40%
    05:00 +14°C° 0 mm 2 mps 702 mmHg 39%
    06:00 +15°C° 0 mm 2 mps 703 mmHg 36%
    07:00 +17°C° 0 mm 2 mps 703 mmHg 34%
    08:00 +18°C° 0 mm 2 mps 704 mmHg 32%
    09:00 +20°C° 0 mm 2 mps 704 mmHg 26%
    10:00 +24°C° 0 mm 2 mps 704 mmHg 20%
    11:00 +26°C° 0 mm 3 mps 705 mmHg 15%
    12:00 +27°C° 0 mm 2 mps 704 mmHg 14%
    13:00 +28°C° 0 mm 2 mps 704 mmHg 13%
    14:00 +29°C° 0 mm 2 mps 703 mmHg 13%
    15:00 +27°C° 0 mm 2 mps 703 mmHg 15%
    16:00 +26°C° 0 mm 2 mps 703 mmHg 18%
    17:00 +25°C° 0 mm 2 mps 703 mmHg 21%
    18:00 +23°C° 0 mm 2 mps 703 mmHg 22%
    19:00 +21°C° 0 mm 2 mps 703 mmHg 23%
    20:00 +19°C° 0 mm 2 mps 703 mmHg 25%
    21:00 +19°C° 0 mm 2 mps 703 mmHg 26%
    22:00 +18°C° 0 mm 2 mps 703 mmHg 26%
    23:00 +18°C° 0 mm 2 mps 703 mmHg 27%

    Tomorrow, 20 January, Sunday

    Time Temperature Precipitation Wind Pressure Humidity
    00:00 +17°C° 0 mm 2 mps 703 mmHg 27%
    01:00 +17°C° 0 mm 2 mps 703 mmHg 27%
    02:00 +17°C° 0 mm 2 mps 703 mmHg 27%
    03:00 +18°C° 0 mm 1 mps 703 mmHg 27%
    04:00 +16°C° 0 mm 1 mps 703 mmHg 27%
    05:00 +16°C° 0 mm 1 mps 703 mmHg 27%
    06:00 +18°C° 0 mm 1 mps 703 mmHg 26%
    07:00 +20°C° 0 mm 1 mps 704 mmHg 26%
    08:00 +21°C° 0 mm 1 mps 705 mmHg 25%
    09:00 +23°C° 0 mm 1 mps 705 mmHg 22%
    10:00 +25°C° 0 mm 2 mps 706 mmHg 19%
    11:00 +28°C° 0 mm 2 mps 706 mmHg 16%
    12:00 +28°C° 0 mm 2 mps 705 mmHg 16%
    13:00 +29°C° 0 mm 2 mps 704 mmHg 15%
    14:00 +30°C° 0 mm 2 mps 704 mmHg 15%
    15:00 +29°C° 0 mm 2 mps 703 mmHg 17%
    16:00 +27°C° 0 mm 2 mps 703 mmHg 20%
    17:00 +26°C° 0 mm 2 mps 703 mmHg 22%
    18:00 +24°C° 0 mm 1 mps 703 mmHg 24%
    19:00 +23°C° 0 mm 1 mps 703 mmHg 26%
    20:00 +19°C° 0 mm 0 mps 703 mmHg 27%
    21:00 +18°C° 0 mm 0 mps 703 mmHg 28%
    22:00 +18°C° 0 mm 0 mps 703 mmHg 28%
    23:00 +20°C° 0 mm 1 mps 703 mmHg 29%

    Day after tomorrow, 21 January, Monday

    Time Temperature Precipitation Wind Pressure Humidity
    00:00 +19°C° 0 mm 1 mps 703 mmHg 29%
    01:00 +17°C° 0 mm 0 mps 702 mmHg 30%
    02:00 +17°C° 0 mm 0 mps 702 mmHg 30%
    03:00 +16°C° 0 mm 0 mps 702 mmHg 30%
    04:00 +16°C° 0 mm 0 mps 702 mmHg 31%
    05:00 +16°C° 0 mm 0 mps 702 mmHg 31%
    06:00 +19°C° 0 mm 1 mps 702 mmHg 31%
    07:00 +20°C° 0 mm 1 mps 703 mmHg 31%
    08:00 +21°C° 0 mm 1 mps 704 mmHg 31%
    09:00 +23°C° 0 mm 2 mps 704 mmHg 27%
    10:00 +26°C° 0 mm 3 mps 704 mmHg 23%
    11:00 +28°C° 0 mm 4 mps 704 mmHg 19%
    12:00 +29°C° 0 mm 4 mps 704 mmHg 18%
    13:00 +29°C° 0 mm 4 mps 703 mmHg 17%
    14:00 +30°C° 0 mm 4 mps 702 mmHg 16%
    15:00 +29°C° 0 mm 4 mps 702 mmHg 19%
    16:00 +27°C° 0 mm 3 mps 701 mmHg 22%
    17:00 +26°C° 0 mm 3 mps 701 mmHg 25%
    18:00 +24°C° 0 mm 3 mps 701 mmHg 26%
    19:00 +23°C° 0 mm 2 mps 701 mmHg 27%
    20:00 +21°C° 0 mm 2 mps 701 mmHg 28%
    21:00 +21°C° 0 mm 2 mps 701 mmHg 28%
    22:00 +20°C° 0 mm 2 mps 701 mmHg 27%
    23:00 +20°C° 0 mm 2 mps 701 mmHg 27%

    22 January, Tuesday

    Time Temperature Precipitation Wind Pressure Humidity
    00:00 +20°C° 0 mm 2 mps 700 mmHg 28%
    01:00 +20°C° 0 mm 2 mps 700 mmHg 29%
    02:00 +20°C° 0 mm 2 mps 700 mmHg 30%
    03:00 +19°C° 0 mm 3 mps 700 mmHg 32%
    04:00 +19°C° 0 mm 3 mps 700 mmHg 34%
    05:00 +19°C° 0 mm 3 mps 700 mmHg 35%
    06:00 +19°C° 0 mm 3 mps 701 mmHg 39%
    07:00 +20°C° 0 mm 3 mps 702 mmHg 42%
    08:00 +20°C° 0 mm 4 mps 702 mmHg 45%
    09:00 +22°C° 0 mm 4 mps 703 mmHg 41%
    10:00 +25°C° 0 mm 5 mps 703 mmHg 38%
    11:00 +27°C° 0 mm 5 mps 703 mmHg 34%
    12:00 +28°C° 0 mm 5 mps 702 mmHg 31%
    13:00 +29°C° 0 mm 5 mps 702 mmHg 29%
    14:00 +30°C° 0 mm 5 mps 701 mmHg 26%
    15:00 +29°C° 0 mm 5 mps 701 mmHg 27%
    16:00 +28°C° 0 mm 4 mps 701 mmHg 29%
    17:00 +27°C° 0 mm 3 mps 701 mmHg 30%
    18:00 +25°C° 0 mm 2 mps 701 mmHg 32%
    19:00 +24°C° 0 mm 2 mps 701 mmHg 33%
    20:00 +23°C° 0 mm 1 mps 702 mmHg 35%
    21:00 +22°C° 0 mm 1 mps 702 mmHg 37%
    22:00 +22°C° 0 mm 1 mps 702 mmHg 39%
    23:00 +21°C° 0 mm 1 mps 702 mmHg 42%

    23 January, Wednesday

    Time Temperature Precipitation Wind Pressure Humidity
    00:00 +21°C° 0 mm 1 mps 701 mmHg 41%
    01:00 +21°C° 0 mm 1 mps 701 mmHg 41%
    02:00 +21°C° 0 mm 1 mps 701 mmHg 41%
    03:00 +21°C° 0 mm 1 mps 701 mmHg 42%
    04:00 +20°C° 0 mm 1 mps 701 mmHg 43%
    05:00 +20°C° 0 mm 1 mps 701 mmHg 43%
    06:00 +20°C° 0 mm 1 mps 702 mmHg 43%
    07:00 +20°C° 0 mm 2 mps 702 mmHg 44%
    08:00 +20°C° 0 mm 2 mps 703 mmHg 44%
    09:00 +23°C° 0 mm 2 mps 703 mmHg 40%
    10:00 +25°C° 0 mm 3 mps 704 mmHg 35%
    11:00 +27°C° 0 mm 4 mps 704 mmHg 31%
    12:00 +28°C° 0 mm 4 mps 703 mmHg 29%
    13:00 +28°C° 0 mm 5 mps 702 mmHg 28%
    14:00 +29°C° 0 mm 5 mps 702 mmHg 26%
    15:00 +28°C° 0 mm 4 mps 701 mmHg 28%
    16:00 +27°C° 0 mm 3 mps 701 mmHg 30%
    17:00 +27°C° 0 mm 2 mps 701 mmHg 32%
    18:00 +25°C° 0 mm 2 mps 701 mmHg 35%
    19:00 +24°C° 0 mm 1 mps 702 mmHg 37%
    20:00 +22°C° 0 mm 1 mps 702 mmHg 40%
    21:00 +22°C° 0 mm 1 mps 702 mmHg 42%
    22:00 +21°C° 0 mm 1 mps 702 mmHg 44%
    23:00 +21°C° 0 mm 1 mps 702 mmHg 46%

    24 January, Thursday

    Time Temperature Precipitation Wind Pressure Humidity
    00:00 +20°C° 0 mm 1 mps 702 mmHg 47%
    01:00 +20°C° 0 mm 1 mps 701 mmHg 47%
    02:00 +19°C° 0 mm 2 mps 701 mmHg 48%
    03:00 +20°C° 0 mm 1 mps 701 mmHg 48%
    04:00 +19°C° 0 mm 1 mps 701 mmHg 48%
    05:00 +19°C° 0 mm 1 mps 701 mmHg 48%
    06:00 +20°C° 0 mm 1 mps 702 mmHg 47%
    07:00 +21°C° 0 mm 1 mps 703 mmHg 46%
    08:00 +22°C° 0 mm 1 mps 704 mmHg 45%
    09:00 +24°C° 0 mm 2 mps 704 mmHg 40%
    10:00 +26°C° 0 mm 3 mps 704 mmHg 34%
    11:00 +27°C° 0 mm 3 mps 704 mmHg 29%
    12:00 +28°C° 0 mm 4 mps 703 mmHg 28%
    13:00 +29°C° 0 mm 4 mps 703 mmHg 27%
    14:00 +29°C° 0 mm 5 mps 702 mmHg 25%
    15:00 +28°C° 0 mm 4 mps 702 mmHg 28%
    16:00 +27°C° 0 mm 3 mps 701 mmHg 31%
    17:00 +26°C° 0 mm 2 mps 701 mmHg 33%
    18:00 +25°C° 0 mm 2 mps 701 mmHg 36%
    19:00 +23°C° 0 mm 1 mps 702 mmHg 39%
    20:00 +22°C° 0 mm 1 mps 702 mmHg 43%
    21:00 +21°C° 0.4 mm 1 mps 702 mmHg 47%
    22:00 +20°C° 0.4 mm 2 mps 702 mmHg 52%
    23:00 +19°C° 0.4 mm 2 mps 701 mmHg 57%
    Show more